Location: Melbourne
(37.8666°S, 145.1333°E)
Time: 03:45:45
(UTC+11:00)

Amateur Radio Satellites - All Passes

Search period start: 26 October 2014 03:15
Search period end: 27 October 2014 03:15
Location: Melbourne, 37.8666°S, 145.1333°E

Satellite Date Start Highest point End Downlink Frequencies (MHz)
Time Altitude Azimuth
AO-Echo 26 Oct 03:17:04 03:21:49 37° 278° (W) 03:26:30 ?
Uosat F 26 Oct 03:27:24 03:28:39 11° 120° (ESE) 03:29:53 435.120 FM
Oscar 16 26 Oct 03:28:02 03:31:00 15° 272° (W) 03:34:00 437.025 USB, Beacon 2401.1428
Uribyol 2 26 Oct 03:47:19 03:51:25 24° 275° (W) 03:55:34 436.500 FM
ITAMSAT 1 26 Oct 03:53:40 03:57:39 22° 274° (W) 04:01:40 435.822 SSB
Saudisat 1A 26 Oct 04:15:42 04:19:31 27° 129° (SE) 04:23:18 436.775 MHz
Gurwin Techsat 1B 26 Oct 04:16:22 04:20:49 27° 275° (W) 04:25:19 435.225 FM
AO-7 26 Oct 04:23:37 04:31:55 70° 111° (ESE) 04:40:18 29.400 - 29.500 MHz
TMSAT-1 26 Oct 04:27:05 04:31:38 29° 276° (W) 04:36:14 436.925 FM
UOSAT-12 26 Oct 04:30:50 04:33:41 17° 226° (SW) 04:36:32 437.025 FM, 437.400 FM
JAS-1B 26 Oct 04:32:16 04:36:51 14° 263° (W) 04:41:36 435.800 - 435.900 CW/SSB
Uosat F 26 Oct 05:01:36 05:06:39 87° 284° (WNW) 05:11:46 435.120 FM
JAS-2 26 Oct 05:27:28 05:34:08 45° 109° (ESE) 05:40:08 435.800 - 435.900 CW/SSB, 435.910 FM
Hamsat 26 Oct 05:48:35 05:52:31 34° 108° (ESE) 05:56:32 145.90 MHz
Saudisat 1A 26 Oct 05:55:13 05:59:02 29° 293° (WNW) 06:02:50 436.775 MHz
ISS 26 Oct 05:57:44 05:59:17 13° 162° (SSE) 06:00:50 145.800 FM
AO-7 26 Oct 06:18:53 06:25:15 24° 274° (W) 06:31:43 29.400 - 29.500 MHz
SO-67 26 Oct 06:37:15 06:38:29 12° 113° (ESE) 06:39:42 435.3500 MHz FM
OPAL 26 Oct 06:47:04 06:52:23 88° 254° (WSW) 06:57:38 ?
STRAND 1 26 Oct 06:56:08 06:58:32 13° 89° (E) 07:00:55 ?
KITSAT 1 26 Oct 07:09:40 07:12:08 11° 155° (SSE) 07:14:35 435.175 FM
JAS-2 26 Oct 07:13:08 07:19:13 30° 277° (W) 07:24:48 435.800 - 435.900 CW/SSB, 435.910 FM
Hamsat 26 Oct 07:25:28 07:28:32 19° 273° (W) 07:31:40 145.90 MHz
ISS 26 Oct 07:33:16 07:36:36 53° 144° (SE) 07:39:54 145.800 FM
SO-67 26 Oct 08:07:49 08:11:04 36° 278° (W) 08:14:21 435.3500 MHz FM
HO-68 26 Oct 08:13:23 08:19:08 27° 119° (ESE) 08:24:54 435.675 MHz FM
OPAL 26 Oct 08:28:52 08:30:25 11° 237° (WSW) 08:31:59 ?
STRAND 1 26 Oct 08:33:01 08:38:09 65° 254° (WSW) 08:43:13 ?
RS-15 26 Oct 08:51:29 09:00:01 23° 80° (E) 09:08:36 29.354 - 29.394 USB, Beacon 29.352 USB
KITSAT 1 26 Oct 09:02:36 09:10:12 41° 129° (SE) 09:17:43 435.175 FM
UKube-1 26 Oct 09:03:16 09:05:39 15° 116° (ESE) 09:08:04 145.840 MHz, 145.915 MHz
ISS 26 Oct 09:11:03 09:12:58 14° 308° (NW) 09:14:52 145.800 FM
Oscar 11 26 Oct 09:42:12 09:46:08 33° 109° (ESE) 09:50:06 145.825 FM, Beacon 2401.500 USB
FUNcube-1 26 Oct 09:44:00 09:46:12 14° 115° (ESE) 09:48:26 145.950 - 145.970 MHz USB
HO-68 26 Oct 09:59:18 10:06:20 58° 282° (WNW) 10:13:27 435.675 MHz FM
SO-50 26 Oct 10:01:16 10:05:40 51° 124° (SE) 10:09:58 436.795 FM
ZACube-1 26 Oct 10:33:29 10:37:33 51° 106° (ESE) 10:41:45 437.345 MHz
UKube-1 26 Oct 10:37:10 10:41:24 49° 280° (W) 10:45:41 145.840 MHz, 145.915 MHz
KITSAT 1 26 Oct 10:58:01 11:05:39 46° 290° (WNW) 11:13:14 435.175 FM
RS-15 26 Oct 10:58:42 11:10:51 88° 241° (WSW) 11:23:16 29.354 - 29.394 USB, Beacon 29.352 USB
FUNcube-1 26 Oct 11:18:05 11:22:07 47° 279° (W) 11:26:18 145.950 - 145.970 MHz USB
Oscar 11 26 Oct 11:19:11 11:22:21 20° 274° (W) 11:25:34 145.825 FM, Beacon 2401.500 USB
MaSat-1 26 Oct 11:19:13 11:20:52 15° 77° (ENE) 11:22:37 437.345 MHz
UOSAT-12 26 Oct 11:20:11 11:24:07 30° 128° (SE) 11:28:03 437.025 FM, 437.400 FM
SO-50 26 Oct 11:43:16 11:45:44 15° 288° (WNW) 11:48:11 436.795 FM
ZACube-1 26 Oct 12:12:43 12:14:17 12° 271° (W) 12:15:52 437.345 MHz
MaSat-1 26 Oct 12:54:13 12:56:16 18° 235° (SW) 12:58:29 437.345 MHz
UOSAT-12 26 Oct 13:00:25 13:04:07 26° 293° (WNW) 13:07:51 437.025 FM, 437.400 FM
RS-15 26 Oct 13:14:52 13:25:15 31° 215° (SW) 13:35:42 29.354 - 29.394 USB, Beacon 29.352 USB
Oscar 16 26 Oct 14:00:28 14:04:41 24° 85° (E) 14:08:51 437.025 USB, Beacon 2401.1428
Uribyol 2 26 Oct 14:22:52 14:25:57 16° 88° (E) 14:29:01 436.500 FM
JAS-1B 26 Oct 14:25:55 14:34:06 45° 84° (E) 14:40:55 435.800 - 435.900 CW/SSB
ITAMSAT 1 26 Oct 14:29:00 14:32:19 17° 87° (E) 14:35:37 435.822 SSB
Oscar 19 26 Oct 14:52:56 14:58:14 77° 77° (ENE) 15:03:27 437.125 CW, 437.150 USB
Gurwin Techsat 1B 26 Oct 14:55:10 14:58:25 16° 88° (E) 15:01:39 435.225 FM
TMSAT-1 26 Oct 15:05:56 15:08:53 15° 89° (E) 15:11:48 436.925 FM
AO-27 26 Oct 15:13:34 15:18:38 48° 80° (E) 15:23:39 436.795 MHz FM
AO-Echo 26 Oct 15:25:45 15:30:32 83° 77° (ENE) 15:35:16 ?
RS-15 26 Oct 15:36:11 15:43:40 17° 180° (S) 15:51:02 29.354 - 29.394 USB, Beacon 29.352 USB
Oscar 16 26 Oct 15:39:15 15:44:06 38° 250° (WSW) 15:48:53 437.025 USB, Beacon 2401.1428
Sapphire 26 Oct 15:40:51 15:45:53 41° 69° (ENE) 15:50:58 437.095 MHz 1200 baud AX-25 AFSK
Uribyol 2 26 Oct 16:00:37 16:05:46 58° 253° (WSW) 16:10:52 436.500 FM
PCSat 26 Oct 16:02:50 16:08:13 72° 65° (ENE) 16:13:38 145.825 MHz
ITAMSAT 1 26 Oct 16:07:00 16:12:06 53° 252° (WSW) 16:17:09 435.822 SSB
JAS-1B 26 Oct 16:16:35 16:24:22 37° 242° (WSW) 16:31:01 435.800 - 435.900 CW/SSB
OPAL 26 Oct 16:24:01 16:27:03 16° 120° (ESE) 16:30:08 ?
AO-7 26 Oct 16:28:27 16:35:00 25° 85° (E) 16:41:27 29.400 - 29.500 MHz
Gurwin Techsat 1B 26 Oct 16:33:27 16:38:44 58° 253° (WSW) 16:43:57 435.225 FM
Oscar 19 26 Oct 16:34:32 16:36:51 13° 241° (WSW) 16:39:10 437.125 CW, 437.150 USB
TMSAT-1 26 Oct 16:43:54 16:49:12 62° 253° (WSW) 16:54:26 436.925 FM
AO-27 26 Oct 16:54:01 16:57:45 20° 245° (WSW) 17:01:29 436.795 MHz FM
Uosat F 26 Oct 17:11:32 17:16:06 33° 83° (E) 17:20:36 435.120 FM
Sapphire 26 Oct 17:24:51 17:29:25 27° 232° (SW) 17:34:02 437.095 MHz 1200 baud AX-25 AFSK
PCSat 26 Oct 17:48:37 17:52:11 18° 227° (SW) 17:55:46 145.825 MHz
RS-15 26 Oct 17:51:34 18:01:58 31° 145° (SE) 18:11:55 29.354 - 29.394 USB, Beacon 29.352 USB
OPAL 26 Oct 18:00:26 18:05:23 60° 283° (WNW) 18:10:28 ?
STRAND 1 26 Oct 18:10:10 18:13:30 18° 116° (ESE) 18:16:50 ?
AO-7 26 Oct 18:19:59 18:28:18 67° 248° (WSW) 18:36:30 29.400 - 29.500 MHz
JAS-2 26 Oct 18:23:50 18:28:43 38° 82° (E) 18:33:36 435.800 - 435.900 CW/SSB, 435.910 FM
Uosat F 26 Oct 18:50:32 18:54:42 26° 247° (WSW) 18:58:51 435.120 FM
Hamsat 26 Oct 19:11:26 19:15:52 90° 258° (WSW) 19:20:12 145.90 MHz
SO-67 26 Oct 19:33:35 19:35:49 16° 87° (E) 19:38:00 435.3500 MHz FM
STRAND 1 26 Oct 19:47:12 19:52:13 54° 280° (W) 19:57:17 ?
Saudisat 1A 26 Oct 19:59:02 20:03:27 75° 238° (WSW) 20:07:55 436.775 MHz
PANSAT 26 Oct 20:00:41 20:03:23 18° 8° (N) 20:06:05 not established
AO-40 26 Oct 20:02:40 23:09:09 25° 54° (NE) 00:44:18 Beacon 2401.320
RS-15 26 Oct 20:04:04 20:16:10 88° 299° (WNW) 20:27:36 29.354 - 29.394 USB, Beacon 29.352 USB
JAS-2 26 Oct 20:09:36 20:13:37 23° 246° (WSW) 20:17:36 435.800 - 435.900 CW/SSB, 435.910 FM
AO-7 26 Oct 20:15:37 20:19:29 14° 229° (SW) 20:23:21 29.400 - 29.500 MHz
Oscar 10/S400 26 Oct 20:54:04 00:15:01 26° 95° (E) 01:58:11 145.825 - 145.975 CW/USB, Beacon 145.810 USB
MaSat-1 26 Oct 21:03:22 21:07:16 33° 120° (ESE) 21:11:18 437.345 MHz
SO-67 26 Oct 21:05:51 21:08:46 25° 252° (WSW) 21:11:39 435.3500 MHz FM
HO-68 26 Oct 21:29:23 21:35:37 31° 84° (E) 21:41:47 435.675 MHz FM
PANSAT 26 Oct 21:40:05 21:42:58 20° 355° (N) 21:45:51 not established
Saudisat 1A 26 Oct 21:43:14 21:43:47 10° 220° (SW) 21:44:20 436.775 MHz
RS-15 26 Oct 22:19:08 22:26:45 20° 278° (W) 22:34:11 29.354 - 29.394 USB, Beacon 29.352 USB
ZACube-1 26 Oct 22:26:04 22:28:08 13° 89° (E) 22:30:11 437.345 MHz
UKube-1 26 Oct 22:27:18 22:31:13 31° 83° (E) 22:35:06 145.840 MHz, 145.915 MHz
MaSat-1 26 Oct 22:39:19 22:42:43 22° 286° (WNW) 22:46:11 437.345 MHz
Oscar 11 26 Oct 23:07:08 23:11:36 88° 77° (ENE) 23:15:59 145.825 FM, Beacon 2401.500 USB
FUNcube-1 26 Oct 23:08:34 23:12:53 38° 82° (E) 23:17:11 145.950 - 145.970 MHz USB
HO-68 26 Oct 23:16:38 23:23:26 47° 247° (WSW) 23:30:12 435.675 MHz FM
PANSAT 26 Oct 23:21:04 23:22:29 12° 343° (NNW) 23:23:53 not established
KITSAT 1 26 Oct 23:29:27 23:36:25 33° 73° (ENE) 23:43:25 435.175 FM
ZACube-1 27 Oct 00:00:17 00:04:49 57° 254° (WSW) 00:09:22 437.345 MHz
UKube-1 27 Oct 00:03:50 00:07:12 22° 247° (WSW) 00:10:32 145.840 MHz, 145.915 MHz
ISS 27 Oct 00:13:56 00:17:09 45° 45° (NE) 00:20:24 145.800 FM
SO-50 27 Oct 00:14:41 00:18:41 27° 68° (ENE) 00:22:39 436.795 FM
Sapphire 27 Oct 00:30:48 00:35:14 25° 129° (SE) 00:39:37 437.095 MHz 1200 baud AX-25 AFSK
Oscar 19 27 Oct 00:33:13 00:34:35 11° 120° (ESE) 00:35:57 437.125 CW, 437.150 USB
FUNcube-1 27 Oct 00:45:37 00:48:58 20° 247° (WSW) 00:52:19 145.950 - 145.970 MHz USB
PCSat 27 Oct 00:52:45 00:57:51 39° 124° (SE) 01:02:54 145.825 MHz
JAS-1B 27 Oct 01:05:30 01:14:04 40° 117° (ESE) 01:22:58 435.800 - 435.900 CW/SSB
Oscar 16 27 Oct 01:15:40 01:20:06 30° 112° (ESE) 01:24:35 437.025 USB, Beacon 2401.1428
KITSAT 1 27 Oct 01:23:34 01:31:26 53° 235° (SW) 01:39:23 435.175 FM
UOSAT-12 27 Oct 01:32:08 01:34:02 13° 72° (ENE) 01:35:56 437.025 FM, 437.400 FM
Uribyol 2 27 Oct 01:38:56 01:42:44 21° 115° (ESE) 01:46:33 436.500 FM
ITAMSAT 1 27 Oct 01:45:11 01:49:10 23° 115° (ESE) 01:53:10 435.822 SSB
ISS 27 Oct 01:51:15 01:53:59 22° 208° (SSW) 01:56:45 145.800 FM
SO-50 27 Oct 01:54:43 01:59:06 34° 232° (SW) 02:03:26 436.795 FM
Oscar 19 27 Oct 02:07:55 02:13:06 89° 284° (WNW) 02:18:22 437.125 CW, 437.150 USB
Sapphire 27 Oct 02:13:40 02:18:51 46° 291° (WNW) 02:23:59 437.095 MHz 1200 baud AX-25 AFSK
Gurwin Techsat 1B 27 Oct 02:14:19 02:18:23 23° 115° (ESE) 02:22:29 435.225 FM
TMSAT-1 27 Oct 02:24:44 02:28:36 21° 115° (ESE) 02:32:29 436.925 FM
AO-27 27 Oct 02:29:51 02:34:59 61° 107° (ESE) 02:40:09 436.795 MHz FM
AO-Echo 27 Oct 02:36:28 02:41:38 88° 104° (ESE) 02:46:42 ?
PCSat 27 Oct 02:36:33 02:41:02 27° 287° (WNW) 02:45:29 145.825 MHz
Oscar 16 27 Oct 02:54:48 02:59:20 31° 276° (W) 03:03:57 437.025 USB, Beacon 2401.1428
JAS-1B 27 Oct 02:54:53 03:04:01 56° 279° (W) 03:13:50 435.800 - 435.900 CW/SSB
